User: anonymous   Login
Location: Astronight Observatory
(42.6003°N, 71.2981°W)
Time: 14:54:46
(UTC-04:00)
Language:

DELTA 2 R/B (1) - Orbit

View from above orbital plane
View from above orbital plane
View from above satellite
View from above satellite

Ground track
Ground track

The orbit data is extracted from the following two-line orbital elements,

1 27665U 03005C   16274.74964345 -.00000100 +00000-0 -58245-5 0  9998
2 27665 039.5772 351.2479 0009076 017.1340 132.2610 14.28420293713731
Epoch (UTC): 30 September 2016 17:59:29
Eccentricity: 0.0009076
inclination: 39.5772°
perigee height: 790 km
apogee height: 803 km
right ascension of ascending node: 351.2479°
argument of perigee: 17.1340°
revolutions per day: 14.28420293
mean anomaly at epoch: 132.2610°
orbit number at epoch: 71373

The dashed part of the orbit path shows where the satellite is in the earth's shadow,  

DLR